Weather History for Boonville, MO

Change the Weather History Date:

Monday, September 1, 2014

  Actual Average Record
Temperature  
Mean Temperature 74 °F -  
Max Temperature 82 °F 86 °F 104 °F (2012)
Min Temperature 66 °F 63 °F 45 °F (1949)
Cooling Degree Days 9    
Growing Degree Days 24 (Base 50)    
Moisture  
Dew Point 67 °F    
Average Humidity 84    
Maximum Humidity 100    
Minimum Humidity 56    
Precipitation  
Precipitation 4.35 in - - ()
Sea Level Pressure  
Sea Level Pressure 29.88 in    
Wind  
Wind Speed 7 mph (SW)    
Max Wind Speed 26 mph    
Max Gust Speed 39 mph    
Visibility 8 miles    
Events Rain , Thunderstorm    
Averages and records for this station are not official NWS values.
T = Trace of Precipitation, MM = Missing Value Source: NWS Daily Summary

Daily Weather History Graph

Daily Weather History Graph

Search for Another Location

Airport:

Trip Planner

Search our weather history database for the weather conditions in past years. The results will help you decide how hot, cold, wet, or windy it might be!

Date:

Astronomy

Sep. 01, 2014 Rise Set
Actual Time 6:39 AM CDT 7:41 PM CDT
Civil Twilight 6:12 AM CDT 8:08 PM CDT
Nautical Twilight 5:39 AM CDT 8:40 PM CDT
Astronomical Twilight 5:05 AM CDT 9:14 PM CDT
Moon 1:22 PM CDT (9/1) 11:46 PM CDT (9/1)
Length of Visible Light 13h 56m
Length of Day
13h 01m
Waxing Crescent, 42% of the Moon is Illuminated
Sep 1
Waxing Crescent
Sep 2
First Quarter
Sep 8
Full
Sep 15
Last Quarter
Sep 24
New

Hourly Weather History & Observations

Time (CDT) Temp. Heat Index Dew Point Humidity Pressure Visibility Wind Dir Wind Speed Gust Speed Precip Events Conditions
12:15 AM 81.5 °F 83.7 °F 66.2 °F 60% 29.85 in 10.0 mi SSW 6.9 mph - N/A   Clear
12:35 AM 79.5 °F - 64.4 °F 60% 29.89 in 10.0 mi WNW 18.4 mph 33.4 mph N/A   Mostly Cloudy
12:55 AM 74.8 °F - 61.2 °F 62% 29.91 in 10.0 mi WNW 12.7 mph 20.7 mph N/A   Overcast
1:15 AM 72.1 °F - 62.6 °F 72% 29.93 in 10.0 mi West 10.4 mph 19.6 mph N/A Rain , Thunderstorm Rain
1:35 AM 69.1 °F - 65.7 °F 89% 29.92 in 10.0 mi WNW 8.1 mph 17.3 mph N/A Rain , Thunderstorm Light Thunderstorms and Rain
2:15 AM 67.8 °F - 66.6 °F 96% 29.88 in 10.0 mi Calm Calm - N/A   Overcast
2:35 AM 68.0 °F - 66.7 °F 96% 29.88 in 10.0 mi SW 3.5 mph - N/A   Overcast
2:55 AM 67.6 °F - 66.9 °F 98% 29.87 in 7.0 mi Calm Calm - 0.01 in Rain Rain
3:15 AM 67.3 °F - 66.7 °F 98% 29.86 in 10.0 mi Calm Calm - N/A   Mostly Cloudy
3:35 AM 67.1 °F - 66.9 °F 99% 29.86 in 10.0 mi Calm Calm - N/A   Unknown
3:55 AM 67.1 °F - 67.1 °F 100% 29.88 in 10.0 mi SW 3.5 mph - N/A   Unknown
4:15 AM 67.1 °F - 67.1 °F 100% 29.91 in 10.0 mi SW 6.9 mph - 0.01 in Rain , Thunderstorm Rain
4:35 AM 67.3 °F - 67.1 °F 99% 29.93 in 10.0 mi Calm Calm - 0.04 in Rain Light Rain
4:55 AM 67.5 °F - 66.7 °F 98% 29.93 in 10.0 mi WSW 6.9 mph - 0.06 in Rain , Thunderstorm Light Thunderstorms and Rain
5:15 AM 67.3 °F - 66.6 °F 98% 29.96 in 10.0 mi WSW 6.9 mph - 0.03 in Rain , Thunderstorm Thunderstorms and Rain
5:35 AM 67.1 °F - 66.6 °F 98% 29.96 in 7.0 mi SSW 5.8 mph - 0.11 in Rain , Thunderstorm Rain
6:15 AM 66.6 °F - 66.2 °F 99% 29.81 in 10.0 mi SE 24.2 mph - 0.01 in Rain Light Rain
6:35 AM 66.2 °F - 65.7 °F 98% 29.75 in 10.0 mi SSE 26.5 mph 29.9 mph 0.02 in   Unknown
6:55 AM 66.6 °F - 65.1 °F 95% 29.71 in 10.0 mi SE 25.3 mph 34.5 mph 0.02 in   Unknown
7:15 AM 67.5 °F - 63.9 °F 88% 29.72 in 10.0 mi South 21.9 mph 39.1 mph N/A   Unknown
7:35 AM 67.6 °F - 63.7 °F 87% 29.75 in 10.0 mi South 10.4 mph 20.7 mph N/A   Unknown
7:55 AM 68.0 °F - 63.7 °F 86% 29.80 in 10.0 mi West 4.6 mph - N/A   Unknown
8:15 AM 68.2 °F - 64.4 °F 88% 29.81 in 10.0 mi West 3.5 mph - N/A   Unknown
8:35 AM 68.2 °F - 64.4 °F 88% 29.83 in 10.0 mi West 3.5 mph - N/A   Unknown
8:55 AM 68.0 °F - 64.6 °F 89% 29.85 in 10.0 mi WSW 4.6 mph - N/A   Unknown
9:15 AM 68.0 °F - 64.8 °F 89% 29.85 in 10.0 mi WSW 4.6 mph - N/A   Scattered Clouds
9:35 AM 68.0 °F - 65.1 °F 90% 29.87 in 10.0 mi West 4.6 mph - N/A   Clear
9:55 AM 68.2 °F - 65.3 °F 90% 29.88 in 10.0 mi West 4.6 mph - N/A   Clear
10:15 AM 68.9 °F - 65.7 °F 89% 29.88 in 10.0 mi WNW 4.6 mph - N/A   Clear
10:35 AM 70.2 °F - 65.8 °F 86% 29.88 in 10.0 mi West 9.2 mph 16.1 mph N/A   Clear
11:15 AM 72.9 °F - 66.6 °F 81% 29.88 in 10.0 mi SW 10.4 mph 19.6 mph N/A   Unknown
11:35 AM 74.7 °F - 65.3 °F 73% 29.89 in 10.0 mi SW 10.4 mph 17.3 mph N/A   Unknown
12:15 PM - - - N/A% 29.90 in - SW 11.5 mph - N/A   Unknown
12:35 PM 77.4 °F - 63.1 °F 61% 29.90 in 10.0 mi SW 10.4 mph 18.4 mph N/A   Clear
1:15 PM 79.7 °F - 63.5 °F 58% 29.90 in 10.0 mi WSW 11.5 mph 16.1 mph N/A   Scattered Clouds
1:35 PM 80.6 °F 82.2 °F 64.0 °F 57% 29.90 in 10.0 mi West 10.4 mph 16.1 mph N/A   Scattered Clouds
1:55 PM 81.1 °F 82.7 °F 64.0 °F 56% 29.90 in 10.0 mi WSW 6.9 mph - N/A   Scattered Clouds
2:15 PM 81.5 °F 83.1 °F 64.4 °F 56% 29.90 in 10.0 mi West 8.1 mph - N/A   Scattered Clouds
2:35 PM 81.7 °F 83.3 °F 64.6 °F 56% 29.90 in 10.0 mi West 11.5 mph - N/A   Scattered Clouds
2:55 PM 81.9 °F 83.5 °F 64.8 °F 56% 29.90 in 10.0 mi WSW 6.9 mph - N/A   Mostly Cloudy
3:15 PM 82.0 °F 83.8 °F 64.8 °F 56% 29.89 in 10.0 mi West 8.1 mph 17.3 mph N/A   Overcast
3:35 PM 81.7 °F 83.5 °F 65.1 °F 57% 29.89 in 10.0 mi West 6.9 mph - N/A   Mostly Cloudy
3:55 PM 82.6 °F 84.5 °F 65.7 °F 56% 29.88 in 10.0 mi West 6.9 mph - N/A   Mostly Cloudy
4:15 PM 81.7 °F 83.6 °F 65.8 °F 58% 29.89 in 10.0 mi West 4.6 mph - N/A   Mostly Cloudy
4:35 PM 81.5 °F 83.6 °F 66.0 °F 59% 29.89 in 10.0 mi WSW 5.8 mph - N/A   Overcast
4:55 PM 81.1 °F 83.2 °F 66.2 °F 60% 29.88 in 10.0 mi West 3.5 mph - N/A   Overcast
5:15 PM 80.2 °F 82.5 °F 66.7 °F 63% 29.88 in 10.0 mi WSW 3.5 mph - N/A   Overcast
5:35 PM 79.2 °F - 66.7 °F 66% 29.87 in 10.0 mi Calm Calm - N/A   Overcast
5:55 PM 78.4 °F - 67.3 °F 68% 29.87 in 10.0 mi Calm Calm - N/A Thunderstorm Thunderstorm
6:35 PM 73.4 °F - 71.1 °F 92% 29.88 in 3.0 mi South 6.9 mph - 0.26 in Rain , Thunderstorm Light Thunderstorms and Rain
6:55 PM 71.8 °F - 71.6 °F 99% 29.88 in 1.5 mi Calm Calm - 0.46 in Rain , Thunderstorm Heavy Thunderstorms and Rain
7:15 PM 71.6 °F - 71.6 °F 100% 29.88 in 5.0 mi South 4.6 mph - 0.05 in Rain , Thunderstorm Heavy Thunderstorms and Rain
7:35 PM 71.2 °F - 71.2 °F 100% 29.88 in 0.8 mi South 3.5 mph - 0.70 in Rain , Thunderstorm Heavy Thunderstorms and Rain
7:55 PM 71.1 °F - 71.2 °F 100% 29.88 in 4.0 mi Calm Calm - 0.81 in Rain , Thunderstorm Heavy Thunderstorms and Rain
8:15 PM 70.9 °F - 71.1 °F 100% 29.88 in 0.8 mi South 5.8 mph - 0.29 in Rain , Thunderstorm Thunderstorms and Rain
8:35 PM 70.9 °F - 71.1 °F 100% 29.88 in 3.0 mi SSW 3.5 mph - 0.58 in Rain , Thunderstorm Thunderstorms and Rain
8:55 PM 70.7 °F - 70.9 °F 100% 29.89 in 4.0 mi Calm Calm - 0.64 in Rain , Thunderstorm Heavy Thunderstorms and Rain
9:15 PM 70.7 °F - 70.9 °F 100% 29.90 in 1.8 mi Calm Calm - 0.39 in Rain , Thunderstorm Heavy Thunderstorms and Rain
9:35 PM 70.9 °F - 71.1 °F 100% 29.90 in 1.8 mi South 3.5 mph - 0.75 in Rain , Thunderstorm Heavy Thunderstorms and Rain
9:55 PM 70.9 °F - 71.1 °F 100% 29.91 in 5.0 mi South 3.5 mph - 0.90 in Rain , Thunderstorm Heavy Thunderstorms and Rain
10:15 PM 71.1 °F - 71.2 °F 100% 29.88 in 4.0 mi East 4.6 mph - 0.09 in Rain Light Rain
10:35 PM 71.1 °F - 71.2 °F 100% 29.88 in 10.0 mi Calm Calm - 0.10 in Rain , Thunderstorm Rain
10:55 PM 71.1 °F - 71.2 °F 100% 29.88 in 1.8 mi Calm Calm - 0.34 in Rain , Thunderstorm Heavy Thunderstorms and Rain
11:15 PM 71.1 °F - 71.2 °F 100% 29.88 in 2.5 mi ENE 4.6 mph - 0.20 in Rain , Thunderstorm Heavy Thunderstorms and Rain
11:35 PM 70.9 °F - 71.1 °F 100% 29.92 in 0.8 mi Calm Calm - 0.87 in Rain , Thunderstorm Heavy Thunderstorms and Rain
11:55 PM 70.7 °F - 70.7 °F 100% 29.91 in 7.0 mi South 9.2 mph - 1.00 in Rain , Thunderstorm Thunderstorms and Rain